Location: Baili�vre
(50.0696°N, 4.2409°E)
Time: 17:27:21
(UTC+00:00)

CZ-2C R/B - Pass Details

Date: 08 August 2020
Orbit: 785 x 870 km, 98.3° (Epoch: 25 September)

Event Time Altitude Azimuth Distance (km) Brightness Sun altitude
Rises 20:15:56 0° 11° (N) 3,292 6.2 -9.3°
Reaches altitude 10° 20:18:18 10° 7° (N) 2,357 5.5 -9.6°
Maximum altitude 20:23:21 56° 291° (WNW) 935 3.4 -10.2°
Drops below altitude 10° 20:28:24 10° 214° (SW) 2,352 5.0 -10.8°
Sets 20:30:46 0° 210° (SSW) 3,285 5.7 -11.1°
